Home > Weather > Liège > Past weeks

Flag for Belgium Past Weather in Liège, Belgium — Yesterday and Last 2 Weeks

Now
63 °F

Clear.


Feels Like: 63 °F
Forecast: 56 / 68 °F
Wind: 6 mph from Southwest

Location: Bierset

Current Time: Jul 30, 2016 at 3:56:54 AM

Latest Report: Jul 30, 2016 at 2:50 AM


Visibility: 10 mi

Pressure: 29.92 "Hg

Humidity: 77%

Dew Point: 55 °F

Location of LiègeLocation

Past Weather in Liège — Graph

°F

Liège Temperature Yesterday

Maximum temperature yesterday: 72 °F (at 3:50 PM)
Minimum temperature yesterday: 59 °F (at 1:20 AM)
Average temperature yesterday: 65 °F

High & Low Weather Summary for the Past Weeks

 TemperatureHumidityPressure
High91 °F (Jul 20, 1:50 PM)94% (Jul 23, 1:20 AM)30.33 "Hg (Jul 23, 1:20 AM)
Low48 °F (Jul 15, 3:50 AM)28% (Jul 20, 3:20 PM)29.89 "Hg (Jul 20, 12:50 PM)
Average69 °F70%30.10 "Hg
* Reported Jul 15 2:20 AM — Jul 30 2:20 AM, Liège, Weather by CustomWeather, © 2016

Note: Actual official high and low records may vary slightly from our data, if they occured in-between our weather recording intervals... More about our weather records

Advertising

Liège Weather History for the Previous 24 Hours

Scroll right to see more
 ConditionsComfort  
Time TempWeatherWind HumidityBarometerVisibility
2:20 AM
Sat, Jul 30
63 °FMostly cloudy.6 mph77%29.95 "HgN/A
1:50 AM63 °FOvercast.6 mph77%29.95 "HgN/A
1:20 AM63 °FPassing clouds.6 mph77%29.95 "HgN/A
12:50 AM63 °FClear.6 mph77%29.95 "Hg10 mi
12:20 AM64 °FOvercast.7 mph78%29.95 "HgN/A
11:50 PM
Fri, Jul 29
64 °FMostly cloudy.3 mph78%29.92 "HgN/A
11:20 PM66 °FPassing clouds.3 mph73%29.92 "HgN/A
10:50 PM66 °FMostly cloudy.3 mph73%29.92 "HgN/A
10:20 PM66 °FPassing clouds.2 mph73%29.92 "HgN/A
9:50 PM66 °FPassing clouds.3 mph78%29.92 "Hg2 mi
9:20 PM68 °FPartly sunny.3 mph69%29.92 "HgN/A
8:50 PM68 °FPassing clouds.3 mph69%29.92 "HgN/A
8:20 PM70 °FSunny.6 mph64%29.92 "Hg10 mi
7:50 PM70 °FSunny.7 mph64%29.92 "Hg10 mi
7:20 PM70 °FPassing clouds.10 mph64%29.89 "HgN/A
6:50 PM70 °FPassing clouds.13 mph64%29.89 "HgN/A
6:20 PM72 °FPassing clouds.16 mph57%29.89 "HgN/A
5:50 PM72 °FPassing clouds.17 mph61%29.92 "HgN/A
5:20 PM72 °FPassing clouds.17 mph57%29.92 "HgN/A
4:50 PM72 °FPassing clouds.14 mph65%29.92 "HgN/A
4:20 PM72 °FPassing clouds.15 mph65%29.92 "HgN/A
3:50 PM72 °FPassing clouds.13 mph65%29.92 "HgN/A
3:20 PM68 °FPassing clouds.13 mph73%29.92 "HgN/A
2:50 PM68 °FSprinkles. Passing clouds.13 mph78%29.92 "HgN/A
2:20 PM68 °FPartly sunny.15 mph78%29.92 "HgN/A
1:50 PM68 °FPassing clouds.14 mph78%29.92 "HgN/A
1:20 PM66 °FPartly sunny.13 mph78%29.92 "HgN/A
12:50 PM64 °FPartly sunny.13 mph83%29.92 "HgN/A
12:20 PM63 °FSprinkles. Partly sunny.12 mph88%29.92 "HgN/A
11:50 AM64 °FSprinkles. Partly sunny.13 mph83%29.92 "HgN/A
11:20 AM64 °FPartly sunny.12 mph88%29.92 "HgN/A
10:50 AM64 °FPartly sunny.13 mph88%29.92 "HgN/A
10:20 AM64 °FScattered clouds.12 mph88%29.92 "HgN/A
9:50 AM63 °FPartly sunny.13 mph94%29.92 "HgN/A
9:20 AM63 °FPartly sunny.12 mph88%29.92 "HgN/A
8:50 AM61 °FPartly sunny.10 mph94%29.92 "HgN/A
8:20 AM61 °FLight rain. Broken clouds.10 mph94%29.92 "Hg3 mi
7:50 AM61 °FLight rain. Broken clouds.9 mph88%29.95 "Hg2 mi
7:20 AM61 °FBroken clouds.10 mph88%29.92 "HgN/A
6:50 AM61 °FPartly cloudy.8 mph88%29.92 "HgN/A
6:20 AM59 °FLight rain. Partly cloudy.7 mph94%29.95 "Hg2 mi
5:20 AM59 °FPartly cloudy.9 mph94%29.95 "Hg2 mi
4:50 AM61 °FPassing clouds.9 mph88%29.95 "HgN/A
4:20 AM61 °FPassing clouds.9 mph88%29.95 "HgN/A
3:50 AM59 °FPassing clouds.9 mph94%29.95 "HgN/A
3:20 AM59 °FPassing clouds.9 mph88%29.95 "HgN/A
Weather by CustomWeather, © 2016

See weather overviewHow to use our weather pages